Year,Month,Day,Hour,Minute,Value (Times are PST for windspeed in km/hr)
2006,07,29,00,00,5.50
2006,07,29,00,01,5.00
2006,07,29,00,02,4.40
2006,07,29,00,03,5.10
2006,07,29,00,04,3.60
2006,07,29,00,05,4.10
2006,07,29,00,06,4.70
2006,07,29,00,07,4.40
2006,07,29,00,08,5.10
2006,07,29,00,09,4.70
2006,07,29,00,10,5.10
2006,07,29,00,11,6.80
2006,07,29,00,12,5.50
2006,07,29,00,13,4.60
2006,07,29,00,14,5.60
2006,07,29,00,15,4.10
2006,07,29,00,16,7.20
2006,07,29,00,17,4.00
2006,07,29,00,18,5.30
2006,07,29,00,19,5.50
2006,07,29,00,20,6.30
2006,07,29,00,21,6.40
2006,07,29,00,22,4.50
2006,07,29,00,23,4.40
2006,07,29,00,24,4.80
2006,07,29,00,25,6.00
2006,07,29,00,26,4.70
2006,07,29,00,27,6.90
2006,07,29,00,28,7.00
2006,07,29,00,29,3.40
2006,07,29,00,30,4.60
2006,07,29,00,31,5.50
2006,07,29,00,32,4.60
2006,07,29,00,33,7.20
2006,07,29,00,34,4.30
2006,07,29,00,35,5.20
2006,07,29,00,36,6.60
2006,07,29,00,37,4.40
2006,07,29,00,38,3.90
2006,07,29,00,39,3.80
2006,07,29,00,40,5.60
2006,07,29,00,41,3.80
2006,07,29,00,42,5.20
2006,07,29,00,43,4.60
2006,07,29,00,44,5.10
2006,07,29,00,45,5.10
2006,07,29,00,46,5.40
2006,07,29,00,47,4.10
2006,07,29,00,48,5.10
2006,07,29,00,49,5.90
2006,07,29,00,50,6.40
2006,07,29,00,51,5.40
2006,07,29,00,52,5.10
2006,07,29,00,53,4.80
2006,07,29,00,54,4.20
2006,07,29,00,55,4.70
2006,07,29,00,56,4.40
2006,07,29,00,57,4.50
2006,07,29,00,58,5.60
2006,07,29,00,59,5.50
2006,07,29,01,00,5.10
2006,07,29,01,01,4.10
2006,07,29,01,02,5.10
2006,07,29,01,03,4.40
2006,07,29,01,04,5.50
2006,07,29,01,05,4.60
2006,07,29,01,06,5.50
2006,07,29,01,07,4.90
2006,07,29,01,08,5.10
2006,07,29,01,09,5.10
2006,07,29,01,10,3.90
2006,07,29,01,11,6.30
2006,07,29,01,12,5.60
2006,07,29,01,13,5.40
2006,07,29,01,14,5.50
2006,07,29,01,15,5.80
2006,07,29,01,16,6.00
2006,07,29,01,17,3.90
2006,07,29,01,18,4.50
2006,07,29,01,19,5.50
2006,07,29,01,20,4.80
2006,07,29,01,21,5.20
2006,07,29,01,22,4.80
2006,07,29,01,23,5.00
2006,07,29,01,24,4.70
2006,07,29,01,25,5.30
2006,07,29,01,26,5.10
2006,07,29,01,27,5.50
2006,07,29,01,28,5.10
2006,07,29,01,29,4.10
2006,07,29,01,30,5.20
2006,07,29,01,31,5.60
2006,07,29,01,32,4.20
2006,07,29,01,33,5.30
2006,07,29,01,34,3.40
2006,07,29,01,35,4.10
2006,07,29,01,36,4.00
2006,07,29,01,37,5.10
2006,07,29,01,38,4.20
2006,07,29,01,39,6.90
2006,07,29,01,40,4.00
2006,07,29,01,41,6.00
2006,07,29,01,42,5.90
2006,07,29,01,43,5.90
2006,07,29,01,44,5.10
2006,07,29,01,45,6.50
2006,07,29,01,46,5.60
2006,07,29,01,47,6.10
2006,07,29,01,48,4.30
2006,07,29,01,49,6.60
2006,07,29,01,50,5.80
2006,07,29,01,51,5.90
2006,07,29,01,52,5.20
2006,07,29,01,53,5.40
2006,07,29,01,54,4.70
2006,07,29,01,55,4.20
2006,07,29,01,56,4.40
2006,07,29,01,57,3.80
2006,07,29,01,58,5.40
2006,07,29,01,59,5.60
2006,07,29,02,00,4.60
2006,07,29,02,01,5.20
2006,07,29,02,02,3.80
2006,07,29,02,03,4.70
2006,07,29,02,04,3.10
2006,07,29,02,05,4.30
2006,07,29,02,06,4.60
2006,07,29,02,07,5.70
2006,07,29,02,08,5.10
2006,07,29,02,09,3.20
2006,07,29,02,10,3.10
2006,07,29,02,11,2.40
2006,07,29,02,12,5.70
2006,07,29,02,13,3.70
2006,07,29,02,14,3.20
2006,07,29,02,15,4.10
2006,07,29,02,16,3.60
2006,07,29,02,17,4.40
2006,07,29,02,18,3.90
2006,07,29,02,19,4.10
2006,07,29,02,20,4.70
2006,07,29,02,21,3.00
2006,07,29,02,22,3.90
2006,07,29,02,23,3.10
2006,07,29,02,24,4.20
2006,07,29,02,25,4.30
2006,07,29,02,26,3.10
2006,07,29,02,27,3.90
2006,07,29,02,28,5.40
2006,07,29,02,29,3.10
2006,07,29,02,30,2.80
2006,07,29,02,31,3.70
2006,07,29,02,32,4.70
2006,07,29,02,33,3.40
2006,07,29,02,34,3.60
2006,07,29,02,35,3.50
2006,07,29,02,36,4.40
2006,07,29,02,37,4.70
2006,07,29,02,38,3.60
2006,07,29,02,39,4.40
2006,07,29,02,40,4.60
2006,07,29,02,41,4.50
2006,07,29,02,42,4.40
2006,07,29,02,43,4.30
2006,07,29,02,44,4.30
2006,07,29,02,45,4.60
2006,07,29,02,46,4.30
2006,07,29,02,47,4.20
2006,07,29,02,48,3.00
2006,07,29,02,49,2.00
2006,07,29,02,50,2.70
2006,07,29,02,51,3.80
2006,07,29,02,52,4.10
2006,07,29,02,53,4.90
2006,07,29,02,54,3.20
2006,07,29,02,55,2.90
2006,07,29,02,56,3.90
2006,07,29,02,57,4.40
2006,07,29,02,58,5.60
2006,07,29,02,59,3.30
2006,07,29,03,00,5.10
2006,07,29,03,01,5.40
2006,07,29,03,02,5.70
2006,07,29,03,03,3.70
2006,07,29,03,04,6.40
2006,07,29,03,05,4.60
2006,07,29,03,06,5.60
2006,07,29,03,07,4.20
2006,07,29,03,08,4.60
2006,07,29,03,09,7.00
2006,07,29,03,10,3.40
2006,07,29,03,11,4.30
2006,07,29,03,12,3.90
2006,07,29,03,13,5.70
2006,07,29,03,14,3.70
2006,07,29,03,15,3.40
2006,07,29,03,16,4.80
2006,07,29,03,17,3.10
2006,07,29,03,18,3.70
2006,07,29,03,19,4.60
2006,07,29,03,20,3.40
2006,07,29,03,21,3.70
2006,07,29,03,22,3.50
2006,07,29,03,23,3.10
2006,07,29,03,24,3.40
2006,07,29,03,25,4.30
2006,07,29,03,26,5.90
2006,07,29,03,27,4.20
2006,07,29,03,28,3.60
2006,07,29,03,29,5.50
2006,07,29,03,30,3.90
2006,07,29,03,31,3.70
2006,07,29,03,32,3.10
2006,07,29,03,33,4.10
2006,07,29,03,34,3.20
2006,07,29,03,35,3.50
2006,07,29,03,36,4.60
2006,07,29,03,37,3.40
2006,07,29,03,38,4.10
2006,07,29,03,39,4.10
2006,07,29,03,40,2.40
2006,07,29,03,41,3.40
2006,07,29,03,42,4.10
2006,07,29,03,43,4.10
2006,07,29,03,44,3.90
2006,07,29,03,45,3.50
2006,07,29,03,46,3.40
2006,07,29,03,47,4.10
2006,07,29,03,48,3.50
2006,07,29,03,49,3.80
2006,07,29,03,50,2.60
2006,07,29,03,51,3.80
2006,07,29,03,52,3.50
2006,07,29,03,53,3.40
2006,07,29,03,54,3.70
2006,07,29,03,55,3.00
2006,07,29,03,56,3.70
2006,07,29,03,57,3.50
2006,07,29,03,58,3.20
2006,07,29,03,59,5.70
2006,07,29,04,00,3.60
2006,07,29,04,01,3.10
2006,07,29,04,02,4.70
2006,07,29,04,03,4.40
2006,07,29,04,04,3.80
2006,07,29,04,05,4.30
2006,07,29,04,06,3.60
2006,07,29,04,07,3.90
2006,07,29,04,08,3.10
2006,07,29,04,09,3.20
2006,07,29,04,10,2.60
2006,07,29,04,11,2.40
2006,07,29,04,12,3.70
2006,07,29,04,13,6.00
2006,07,29,04,14,6.10
2006,07,29,04,15,5.60
2006,07,29,04,16,2.90
2006,07,29,04,17,4.50
2006,07,29,04,18,4.30
2006,07,29,04,19,3.90
2006,07,29,04,20,5.00
2006,07,29,04,21,3.90
2006,07,29,04,22,2.00
2006,07,29,04,23,2.00
2006,07,29,04,24,2.90
2006,07,29,04,25,2.90
2006,07,29,04,26,3.40
2006,07,29,04,27,3.60
2006,07,29,04,28,4.30
2006,07,29,04,29,4.90
2006,07,29,04,30,3.30
2006,07,29,04,31,3.10
2006,07,29,04,32,3.40
2006,07,29,04,33,3.00
2006,07,29,04,34,3.00
2006,07,29,04,35,4.00
2006,07,29,04,36,2.40
2006,07,29,04,37,3.90
2006,07,29,04,38,3.90
2006,07,29,04,39,2.70
2006,07,29,04,40,4.10
2006,07,29,04,41,4.90
2006,07,29,04,42,4.30
2006,07,29,04,43,5.60
2006,07,29,04,44,4.30
2006,07,29,04,45,3.60
2006,07,29,04,46,4.00
2006,07,29,04,47,4.60
2006,07,29,04,48,4.80
2006,07,29,04,49,4.00
2006,07,29,04,50,2.40
2006,07,29,04,51,5.30
2006,07,29,04,52,4.30
2006,07,29,04,53,3.50
2006,07,29,04,54,4.60
2006,07,29,04,55,3.60
2006,07,29,04,56,3.60
2006,07,29,04,57,3.70
2006,07,29,04,58,3.70
2006,07,29,04,59,4.00
2006,07,29,05,00,3.70
2006,07,29,05,01,5.10
2006,07,29,05,02,6.70
2006,07,29,05,03,5.30
2006,07,29,05,04,3.80
2006,07,29,05,05,4.70
2006,07,29,05,06,4.60
2006,07,29,05,07,5.10
2006,07,29,05,08,5.10
2006,07,29,05,09,7.60
2006,07,29,05,10,4.10
2006,07,29,05,11,6.10
2006,07,29,05,12,4.30
2006,07,29,05,13,6.10
2006,07,29,05,14,4.40
2006,07,29,05,15,4.40
2006,07,29,05,16,7.70
2006,07,29,05,17,6.10
2006,07,29,05,18,8.40
2006,07,29,05,19,4.40
2006,07,29,05,20,5.30
2006,07,29,05,21,5.50
2006,07,29,05,22,5.10
2006,07,29,05,23,4.90
2006,07,29,05,24,3.90
2006,07,29,05,25,4.90
2006,07,29,05,26,7.20
2006,07,29,05,27,5.40
2006,07,29,05,28,5.60
2006,07,29,05,29,4.40
2006,07,29,05,30,6.40
2006,07,29,05,31,5.80
2006,07,29,05,32,4.70
2006,07,29,05,33,6.00
2006,07,29,05,34,6.70
2006,07,29,05,35,5.80
2006,07,29,05,36,8.10
2006,07,29,05,37,10.50
2006,07,29,05,38,6.90
2006,07,29,05,39,4.80
2006,07,29,05,40,6.70
2006,07,29,05,41,6.90
2006,07,29,05,42,4.90
2006,07,29,05,43,3.70
2006,07,29,05,44,3.70
2006,07,29,05,45,3.50
2006,07,29,05,46,4.20
2006,07,29,05,47,3.50
2006,07,29,05,48,5.10
2006,07,29,05,49,8.50
2006,07,29,05,50,3.40
2006,07,29,05,51,1.50
2006,07,29,05,52,6.40
2006,07,29,05,53,2.80
2006,07,29,05,54,7.70
2006,07,29,05,55,5.20
2006,07,29,05,56,6.90
2006,07,29,05,57,5.40
2006,07,29,05,58,7.60
2006,07,29,05,59,7.10
2006,07,29,06,00,5.10
2006,07,29,06,01,6.50
2006,07,29,06,02,4.50
2006,07,29,06,03,3.60
2006,07,29,06,04,6.20
2006,07,29,06,05,5.50
2006,07,29,06,06,4.30
2006,07,29,06,07,5.10
2006,07,29,06,08,6.00
2006,07,29,06,09,5.60
2006,07,29,06,10,6.70
2006,07,29,06,11,5.10
2006,07,29,06,12,7.60
2006,07,29,06,13,4.60
2006,07,29,06,14,7.40
2006,07,29,06,15,4.30
2006,07,29,06,16,7.10
2006,07,29,06,17,5.60
2006,07,29,06,18,4.60
2006,07,29,06,19,6.90
2006,07,29,06,20,6.20
2006,07,29,06,21,6.30
2006,07,29,06,22,3.10
2006,07,29,06,23,3.70
2006,07,29,06,24,4.30
2006,07,29,06,25,2.80
2006,07,29,06,26,7.60
2006,07,29,06,27,5.80
2006,07,29,06,28,6.00
2006,07,29,06,29,8.10
2006,07,29,06,30,4.70
2006,07,29,06,31,5.00
2006,07,29,06,32,8.00
2006,07,29,06,33,6.00
2006,07,29,06,34,4.10
2006,07,29,06,35,5.00
2006,07,29,06,36,4.10
2006,07,29,06,37,4.70
2006,07,29,06,38,3.10
2006,07,29,06,39,4.80
2006,07,29,06,40,3.20
2006,07,29,06,41,7.90
2006,07,29,06,42,5.70
2006,07,29,06,43,4.30
2006,07,29,06,44,2.00
2006,07,29,06,45,3.20
2006,07,29,06,46,5.30
2006,07,29,06,47,6.50
2006,07,29,06,48,5.60
2006,07,29,06,49,3.70
2006,07,29,06,50,3.10
2006,07,29,06,51,5.10
2006,07,29,06,52,5.20
2006,07,29,06,53,4.20
2006,07,29,06,54,5.10
2006,07,29,06,55,5.00
2006,07,29,06,56,8.90
2006,07,29,06,57,7.30
2006,07,29,06,58,8.00
2006,07,29,06,59,4.40
2006,07,29,07,00,7.20
2006,07,29,07,01,5.10
2006,07,29,07,02,6.60
2006,07,29,07,03,5.20
2006,07,29,07,04,4.70
2006,07,29,07,05,3.50
2006,07,29,07,06,4.90
2006,07,29,07,07,4.50
2006,07,29,07,08,8.40
2006,07,29,07,09,3.90
2006,07,29,07,10,6.60
2006,07,29,07,11,7.00
2006,07,29,07,12,5.40
2006,07,29,07,13,2.30
2006,07,29,07,14,6.20
2006,07,29,07,15,3.30
2006,07,29,07,16,7.50
2006,07,29,07,17,5.00
2006,07,29,07,18,4.90
2006,07,29,07,19,7.30
2006,07,29,07,20,8.90
2006,07,29,07,21,5.50
2006,07,29,07,22,5.60
2006,07,29,07,23,6.80
2006,07,29,07,24,7.50
2006,07,29,07,25,8.10
2006,07,29,07,26,6.20
2006,07,29,07,27,5.40
2006,07,29,07,28,5.70
2006,07,29,07,29,4.20
2006,07,29,07,30,4.00
2006,07,29,07,31,5.30
2006,07,29,07,32,3.70
2006,07,29,07,33,4.80
2006,07,29,07,34,4.80
2006,07,29,07,35,5.90
2006,07,29,07,36,4.70
2006,07,29,07,37,5.60
2006,07,29,07,38,7.10
2006,07,29,07,39,2.50
2006,07,29,07,40,6.60
2006,07,29,07,41,6.30
2006,07,29,07,42,6.00
2006,07,29,07,43,3.90
2006,07,29,07,44,6.40
2006,07,29,07,45,13.00
2006,07,29,07,46,8.70
2006,07,29,07,47,7.50
2006,07,29,07,48,4.90
2006,07,29,07,49,4.70
2006,07,29,07,50,6.00
2006,07,29,07,51,5.90
2006,07,29,07,52,5.80
2006,07,29,07,53,8.00
2006,07,29,07,54,8.60
2006,07,29,07,55,6.70
2006,07,29,07,56,4.50
2006,07,29,07,57,6.80
2006,07,29,07,58,3.90
2006,07,29,07,59,8.60
2006,07,29,08,00,6.00
2006,07,29,08,01,3.50
2006,07,29,08,02,3.00
2006,07,29,08,03,6.50
2006,07,29,08,04,6.30
2006,07,29,08,05,7.00
2006,07,29,08,06,10.20
2006,07,29,08,07,9.70
2006,07,29,08,08,5.50
2006,07,29,08,09,7.70
2006,07,29,08,10,9.70
2006,07,29,08,11,8.10
2006,07,29,08,12,9.10
2006,07,29,08,13,8.30
2006,07,29,08,14,12.80
2006,07,29,08,15,6.60
2006,07,29,08,16,6.30
2006,07,29,08,17,5.80
2006,07,29,08,18,10.70
2006,07,29,08,19,10.50
2006,07,29,08,20,8.80
2006,07,29,08,21,7.20
2006,07,29,08,22,5.60
2006,07,29,08,23,5.80
2006,07,29,08,24,10.70
2006,07,29,08,25,7.30
2006,07,29,08,26,7.30
2006,07,29,08,27,5.10
2006,07,29,08,28,3.80
2006,07,29,08,29,6.40
2006,07,29,08,30,5.70
2006,07,29,08,31,4.50
2006,07,29,08,32,3.90
2006,07,29,08,33,5.30
2006,07,29,08,34,4.50
2006,07,29,08,35,6.30
2006,07,29,08,36,5.60
2006,07,29,08,37,7.20
2006,07,29,08,38,6.20
2006,07,29,08,39,13.00
2006,07,29,08,40,4.50
2006,07,29,08,41,8.80
2006,07,29,08,42,13.90
2006,07,29,08,43,8.30
2006,07,29,08,44,3.40
2006,07,29,08,45,7.20
2006,07,29,08,46,13.70
2006,07,29,08,47,12.00
2006,07,29,08,48,8.70
2006,07,29,08,49,8.40
2006,07,29,08,50,7.20
2006,07,29,08,51,4.70
2006,07,29,08,52,7.70
2006,07,29,08,53,5.80
2006,07,29,08,54,13.00
2006,07,29,08,55,17.40
2006,07,29,08,56,8.90
2006,07,29,08,57,8.30
2006,07,29,08,58,11.30
2006,07,29,08,59,6.50
2006,07,29,09,00,6.90
2006,07,29,09,01,14.10
2006,07,29,09,02,13.00
2006,07,29,09,03,5.70
2006,07,29,09,04,4.70
2006,07,29,09,05,4.30
2006,07,29,09,06,6.20
2006,07,29,09,07,2.70
2006,07,29,09,08,3.40
2006,07,29,09,09,5.00
2006,07,29,09,10,8.20
2006,07,29,09,11,11.30
2006,07,29,09,12,8.50
2006,07,29,09,13,9.50
2006,07,29,09,14,5.80
2006,07,29,09,15,9.30
2006,07,29,09,16,9.70
2006,07,29,09,17,11.90
2006,07,29,09,18,8.40
2006,07,29,09,19,11.10
2006,07,29,09,20,8.00
2006,07,29,09,21,9.30
2006,07,29,09,22,3.50
2006,07,29,09,23,8.50
2006,07,29,09,24,11.40
2006,07,29,09,25,12.70
2006,07,29,09,26,14.10
2006,07,29,09,27,9.70
2006,07,29,09,28,14.60
2006,07,29,09,29,12.60
2006,07,29,09,30,11.10
2006,07,29,09,31,11.30
2006,07,29,09,32,8.40
2006,07,29,09,33,3.10
2006,07,29,09,34,4.10
2006,07,29,09,35,4.10
2006,07,29,09,36,5.10
2006,07,29,09,37,2.20
2006,07,29,09,38,4.80
2006,07,29,09,39,5.10
2006,07,29,09,40,7.30
2006,07,29,09,41,6.70
2006,07,29,09,42,10.10
2006,07,29,09,43,11.50
2006,07,29,09,44,13.10
2006,07,29,09,45,16.10
2006,07,29,09,46,10.90
2006,07,29,09,47,14.70
2006,07,29,09,48,10.40
2006,07,29,09,49,11.60
2006,07,29,09,50,7.10
2006,07,29,09,51,11.30
2006,07,29,09,52,8.70
2006,07,29,09,53,13.40
2006,07,29,09,54,7.90
2006,07,29,09,55,5.60
2006,07,29,09,56,6.20
2006,07,29,09,57,8.10
2006,07,29,09,58,20.40
2006,07,29,09,59,17.20
2006,07,29,10,00,13.40
2006,07,29,10,01,9.60
2006,07,29,10,02,6.70
2006,07,29,10,03,6.00
2006,07,29,10,04,8.30
2006,07,29,10,05,11.40
2006,07,29,10,06,7.20
2006,07,29,10,07,10.80
2006,07,29,10,08,11.50
2006,07,29,10,09,7.60
2006,07,29,10,10,14.10
2006,07,29,10,11,6.80
2006,07,29,10,12,7.40
2006,07,29,10,13,11.30
2006,07,29,10,14,16.30
2006,07,29,10,15,11.20
2006,07,29,10,16,13.40
2006,07,29,10,17,13.10
2006,07,29,10,18,13.00
2006,07,29,10,19,11.50
2006,07,29,10,20,10.50
2006,07,29,10,21,6.80
2006,07,29,10,22,16.40
2006,07,29,10,23,11.80
2006,07,29,10,24,14.80
2006,07,29,10,25,5.50
2006,07,29,10,26,6.00
2006,07,29,10,27,8.00
2006,07,29,10,28,8.60
2006,07,29,10,29,10.50
2006,07,29,10,30,5.50
2006,07,29,10,31,5.00
2006,07,29,10,32,2.80
2006,07,29,10,33,2.80
2006,07,29,10,34,3.80
2006,07,29,10,35,6.40
2006,07,29,10,36,4.30
2006,07,29,10,37,8.30
2006,07,29,10,38,9.90
2006,07,29,10,39,11.30
2006,07,29,10,40,6.50
2006,07,29,10,41,8.50
2006,07,29,10,42,6.80
2006,07,29,10,43,5.90
2006,07,29,10,44,6.60
2006,07,29,10,45,7.20
2006,07,29,10,46,6.90
2006,07,29,10,47,7.40
2006,07,29,10,48,4.60
2006,07,29,10,49,7.70
2006,07,29,10,50,8.00
2006,07,29,10,51,6.50
2006,07,29,10,52,6.10
2006,07,29,10,53,4.60
2006,07,29,10,54,3.00
2006,07,29,10,55,8.80
2006,07,29,10,56,10.90
2006,07,29,10,57,10.70
2006,07,29,10,58,12.20
2006,07,29,10,59,12.70
2006,07,29,11,00,11.20
2006,07,29,11,01,8.90
2006,07,29,11,02,4.90
2006,07,29,11,03,8.60
2006,07,29,11,04,9.10
2006,07,29,11,05,10.80
2006,07,29,11,06,14.10
2006,07,29,11,07,11.00
2006,07,29,11,08,12.00
2006,07,29,11,09,10.70
2006,07,29,11,10,8.60
2006,07,29,11,11,7.40
2006,07,29,11,12,12.90
2006,07,29,11,13,5.00
2006,07,29,11,14,8.00
2006,07,29,11,15,13.90
2006,07,29,11,16,10.20
2006,07,29,11,17,6.50
2006,07,29,11,18,11.80
2006,07,29,11,19,15.30
2006,07,29,11,20,6.40
2006,07,29,11,21,13.90
2006,07,29,11,22,12.60
2006,07,29,11,23,10.60
2006,07,29,11,24,6.40
2006,07,29,11,25,15.20
2006,07,29,11,26,9.10
2006,07,29,11,27,8.40
2006,07,29,11,28,9.60
2006,07,29,11,29,4.90
2006,07,29,11,30,5.70
2006,07,29,11,31,8.80
2006,07,29,11,32,7.40
2006,07,29,11,33,9.10
2006,07,29,11,34,13.40
2006,07,29,11,35,10.10
2006,07,29,11,36,5.40
2006,07,29,11,37,12.20
2006,07,29,11,38,11.90
2006,07,29,11,39,8.20
2006,07,29,11,40,4.70
2006,07,29,11,41,8.80
2006,07,29,11,42,4.70
2006,07,29,11,43,10.00
2006,07,29,11,44,6.10
2006,07,29,11,45,11.10
2006,07,29,11,46,10.30
2006,07,29,11,47,11.90
2006,07,29,11,48,8.50
2006,07,29,11,49,5.60
2006,07,29,11,50,6.50
2006,07,29,11,51,10.50
2006,07,29,11,52,6.40
2006,07,29,11,53,4.20
2006,07,29,11,54,8.60
2006,07,29,11,55,13.30
2006,07,29,11,56,15.60
2006,07,29,11,57,17.90
2006,07,29,11,58,18.30
2006,07,29,11,59,13.60
2006,07,29,12,00,13.20
2006,07,29,12,01,11.70
2006,07,29,12,02,11.70
2006,07,29,12,03,8.20
2006,07,29,12,04,10.90
2006,07,29,12,05,13.90
2006,07,29,12,06,14.20
2006,07,29,12,07,10.30
2006,07,29,12,08,8.80
2006,07,29,12,09,7.70
2006,07,29,12,10,5.90
2006,07,29,12,11,2.80
2006,07,29,12,12,3.00
2006,07,29,12,13,14.90
2006,07,29,12,14,13.90
2006,07,29,12,15,11.00
2006,07,29,12,16,10.40
2006,07,29,12,17,15.80
2006,07,29,12,18,14.90
2006,07,29,12,19,10.50
2006,07,29,12,20,15.00
2006,07,29,12,21,14.30
2006,07,29,12,22,18.40
2006,07,29,12,23,17.60
2006,07,29,12,24,14.30
2006,07,29,12,25,14.80
2006,07,29,12,26,23.30
2006,07,29,12,27,17.50
2006,07,29,12,28,16.80
2006,07,29,12,29,15.70
2006,07,29,12,30,17.80
2006,07,29,12,31,10.10
2006,07,29,12,32,12.30
2006,07,29,12,33,12.60
2006,07,29,12,34,16.00
2006,07,29,12,35,16.90
2006,07,29,12,36,12.00
2006,07,29,12,37,13.90
2006,07,29,12,38,16.50
2006,07,29,12,39,16.50
2006,07,29,12,40,13.60
2006,07,29,12,41,16.50
2006,07,29,12,42,16.20
2006,07,29,12,43,16.50
2006,07,29,12,44,15.50
2006,07,29,12,45,10.50
2006,07,29,12,46,13.30
2006,07,29,12,47,11.70
2006,07,29,12,48,13.60
2006,07,29,12,49,12.00
2006,07,29,12,50,16.50
2006,07,29,12,51,17.50
2006,07,29,12,52,16.70
2006,07,29,12,53,17.20
2006,07,29,12,54,12.30
2006,07,29,12,55,10.90
2006,07,29,12,56,11.50
2006,07,29,12,57,14.50
2006,07,29,12,58,14.70
2006,07,29,12,59,16.20
2006,07,29,13,00,17.70
2006,07,29,13,01,15.10
2006,07,29,13,02,15.90
2006,07,29,13,03,12.30
2006,07,29,13,04,14.30
2006,07,29,13,05,12.20
2006,07,29,13,06,15.50
2006,07,29,13,07,15.20
2006,07,29,13,08,17.10
2006,07,29,13,09,14.20
2006,07,29,13,10,13.30
2006,07,29,13,11,13.80
2006,07,29,13,12,12.60
2006,07,29,13,13,17.70
2006,07,29,13,14,17.90
2006,07,29,13,15,11.90
2006,07,29,13,16,14.90
2006,07,29,13,17,11.10
2006,07,29,13,18,12.70
2006,07,29,13,19,14.00
2006,07,29,13,20,10.80
2006,07,29,13,21,11.50
2006,07,29,13,22,12.10
2006,07,29,13,23,13.80
2006,07,29,13,24,15.10
2006,07,29,13,25,14.70
2006,07,29,13,26,13.00
2006,07,29,13,27,17.50
2006,07,29,13,28,13.60
2006,07,29,13,29,16.30
2006,07,29,13,30,14.50
2006,07,29,13,31,19.00
2006,07,29,13,32,13.60
2006,07,29,13,33,13.50
2006,07,29,13,34,18.00
2006,07,29,13,35,10.70
2006,07,29,13,36,16.20
2006,07,29,13,37,18.30
2006,07,29,13,38,16.10
2006,07,29,13,39,13.90
2006,07,29,13,40,12.10
2006,07,29,13,41,14.80
2006,07,29,13,42,14.90
2006,07,29,13,43,11.20
2006,07,29,13,44,12.20
2006,07,29,13,45,15.90
2006,07,29,13,46,18.00
2006,07,29,13,47,13.70
2006,07,29,13,48,17.00
2006,07,29,13,49,14.20
2006,07,29,13,50,14.20
2006,07,29,13,51,19.80
2006,07,29,13,52,15.50
2006,07,29,13,53,16.50
2006,07,29,13,54,15.40
2006,07,29,13,55,13.00
2006,07,29,13,56,14.00
2006,07,29,13,57,12.30
2006,07,29,13,58,13.10
2006,07,29,13,59,10.10
2006,07,29,14,00,9.00
2006,07,29,14,01,19.10
2006,07,29,14,02,18.20
2006,07,29,14,03,17.50
2006,07,29,14,04,15.10
2006,07,29,14,05,14.00
2006,07,29,14,06,15.90
2006,07,29,14,07,12.90
2006,07,29,14,08,20.40
2006,07,29,14,09,14.00
2006,07,29,14,10,13.00
2006,07,29,14,11,12.60
2006,07,29,14,12,16.70
2006,07,29,14,13,9.30
2006,07,29,14,14,16.20
2006,07,29,14,15,15.90
2006,07,29,14,16,10.80
2006,07,29,14,17,9.30
2006,07,29,14,18,12.50
2006,07,29,14,19,16.30
2006,07,29,14,20,18.50
2006,07,29,14,21,12.00
2006,07,29,14,22,14.50
2006,07,29,14,23,16.80
2006,07,29,14,24,18.20
2006,07,29,14,25,14.10
2006,07,29,14,26,9.70
2006,07,29,14,27,10.80
2006,07,29,14,28,13.00
2006,07,29,14,29,14.60
2006,07,29,14,30,16.70
2006,07,29,14,31,10.60
2006,07,29,14,32,12.40
2006,07,29,14,33,15.40
2006,07,29,14,34,14.50
2006,07,29,14,35,15.90
2006,07,29,14,36,9.90
2006,07,29,14,37,11.50
2006,07,29,14,38,14.60
2006,07,29,14,39,17.90
2006,07,29,14,40,13.00
2006,07,29,14,41,13.70
2006,07,29,14,42,14.10
2006,07,29,14,43,15.10
2006,07,29,14,44,15.50
2006,07,29,14,45,15.70
2006,07,29,14,46,11.20
2006,07,29,14,47,13.40
2006,07,29,14,48,14.30
2006,07,29,14,49,13.60
2006,07,29,14,50,14.70
2006,07,29,14,51,18.10
2006,07,29,14,52,16.10
2006,07,29,14,53,14.20
2006,07,29,14,54,15.50
2006,07,29,14,55,18.10
2006,07,29,14,56,9.30
2006,07,29,14,57,17.10
2006,07,29,14,58,14.80
2006,07,29,14,59,14.60
2006,07,29,15,00,15.50
2006,07,29,15,01,13.40
2006,07,29,15,02,11.40
2006,07,29,15,03,13.00
2006,07,29,15,04,15.90
2006,07,29,15,05,17.10
2006,07,29,15,06,15.50
2006,07,29,15,07,14.70
2006,07,29,15,08,15.80
2006,07,29,15,09,14.10
2006,07,29,15,10,16.80
2006,07,29,15,11,15.30
2006,07,29,15,12,13.60
2006,07,29,15,13,13.90
2006,07,29,15,14,12.30
2006,07,29,15,15,10.10
2006,07,29,15,16,13.90
2006,07,29,15,17,13.40
2006,07,29,15,18,11.10
2006,07,29,15,19,10.20
2006,07,29,15,20,9.70
2006,07,29,15,21,14.60
2006,07,29,15,22,11.00
2006,07,29,15,23,10.10
2006,07,29,15,24,9.90
2006,07,29,15,25,11.90
2006,07,29,15,26,14.30
2006,07,29,15,27,17.70
2006,07,29,15,28,9.10
2006,07,29,15,29,13.40
2006,07,29,15,30,16.80
2006,07,29,15,31,12.60
2006,07,29,15,32,8.70
2006,07,29,15,33,9.70
2006,07,29,15,34,9.30
2006,07,29,15,35,10.90
2006,07,29,15,36,6.00
2006,07,29,15,37,13.40
2006,07,29,15,38,12.40
2006,07,29,15,39,10.70
2006,07,29,15,40,12.20
2006,07,29,15,41,11.10
2006,07,29,15,42,11.10
2006,07,29,15,43,8.50
2006,07,29,15,44,9.80
2006,07,29,15,45,10.70
2006,07,29,15,46,15.40
2006,07,29,15,47,18.80
2006,07,29,15,48,11.80
2006,07,29,15,49,18.30
2006,07,29,15,50,13.30
2006,07,29,15,51,14.70
2006,07,29,15,52,10.90
2006,07,29,15,53,12.90
2006,07,29,15,54,13.80
2006,07,29,15,55,15.80
2006,07,29,15,56,14.20
2006,07,29,15,57,11.10
2006,07,29,15,58,14.30
2006,07,29,15,59,13.50
2006,07,29,16,00,14.20
2006,07,29,16,01,15.30
2006,07,29,16,02,12.20
2006,07,29,16,03,12.40
2006,07,29,16,04,10.40
2006,07,29,16,05,11.80
2006,07,29,16,06,13.30
2006,07,29,16,07,14.30
2006,07,29,16,08,9.90
2006,07,29,16,09,8.50
2006,07,29,16,10,15.00
2006,07,29,16,11,8.90
2006,07,29,16,12,10.00
2006,07,29,16,13,10.40
2006,07,29,16,14,11.60
2006,07,29,16,15,12.10
2006,07,29,16,16,13.00
2006,07,29,16,17,10.60
2006,07,29,16,18,11.00
2006,07,29,16,19,11.60
2006,07,29,16,20,8.50
2006,07,29,16,21,11.20
2006,07,29,16,22,7.60
2006,07,29,16,23,8.90
2006,07,29,16,24,9.10
2006,07,29,16,25,11.40
2006,07,29,16,26,9.70
2006,07,29,16,27,9.00
2006,07,29,16,28,15.30
2006,07,29,16,29,8.80
2006,07,29,16,30,10.30
2006,07,29,16,31,9.70
2006,07,29,16,32,10.30
2006,07,29,16,33,13.20
2006,07,29,16,34,11.40
2006,07,29,16,35,11.40
2006,07,29,16,36,9.00
2006,07,29,16,37,8.40
2006,07,29,16,38,11.00
2006,07,29,16,39,14.50
2006,07,29,16,40,12.10
2006,07,29,16,41,12.30
2006,07,29,16,42,10.10
2006,07,29,16,43,10.20
2006,07,29,16,44,10.30
2006,07,29,16,45,15.50
2006,07,29,16,46,13.50
2006,07,29,16,47,10.50
2006,07,29,16,48,9.20
2006,07,29,16,49,9.70
2006,07,29,16,50,12.10
2006,07,29,16,51,10.80
2006,07,29,16,52,10.20
2006,07,29,16,53,15.20
2006,07,29,16,54,13.80
2006,07,29,16,55,8.30
2006,07,29,16,56,10.50
2006,07,29,16,57,8.40
2006,07,29,16,58,5.60
2006,07,29,16,59,8.10
2006,07,29,17,00,8.60
2006,07,29,17,01,6.80
2006,07,29,17,02,6.30
2006,07,29,17,03,5.70
2006,07,29,17,04,10.10
2006,07,29,17,05,8.30
2006,07,29,17,06,3.90
2006,07,29,17,07,6.90
2006,07,29,17,08,8.00
2006,07,29,17,09,6.30
2006,07,29,17,10,5.10
2006,07,29,17,11,7.20
2006,07,29,17,12,7.10
2006,07,29,17,13,4.30
2006,07,29,17,14,8.20
2006,07,29,17,15,3.90
2006,07,29,17,16,8.00
2006,07,29,17,17,6.10
2006,07,29,17,18,9.60
2006,07,29,17,19,10.10
2006,07,29,17,20,6.70
2006,07,29,17,21,5.30
2006,07,29,17,22,7.60
2006,07,29,17,23,8.30
2006,07,29,17,24,9.50
2006,07,29,17,25,9.30
2006,07,29,17,26,6.80
2006,07,29,17,27,5.30
2006,07,29,17,28,7.20
2006,07,29,17,29,7.60
2006,07,29,17,30,8.40
2006,07,29,17,31,8.80
2006,07,29,17,32,7.70
2006,07,29,17,33,6.60
2006,07,29,17,34,6.80
2006,07,29,17,35,10.50
2006,07,29,17,36,12.50
2006,07,29,17,37,10.10
2006,07,29,17,38,11.40
2006,07,29,17,39,7.70
2006,07,29,17,40,8.80
2006,07,29,17,41,7.70
2006,07,29,17,42,14.90
2006,07,29,17,43,16.50
2006,07,29,17,44,8.40
2006,07,29,17,45,10.70
2006,07,29,17,46,15.00
2006,07,29,17,47,13.10
2006,07,29,17,48,13.30
2006,07,29,17,49,11.00
2006,07,29,17,50,11.90